[[{"header":{"parameterUnit":"m.s-1","parameterCategory":1,"la1":30.2991,"la2":30.254,"lo1":-89.0895,"lo2":-89.0444,"dy":0.0017,"dx":0.0017,"nx":28,"ny":28,"refTime":"2025-01-07T09:00:00:Z","depth":0,"parameterNumber":2,"parameterNumberName":"U-component_of_WINDS"},"data":[0,0,0,0,0,0,0,0,0,0,0,0,0,0,0,0,0,0,0,0,0,0,0,0,0,0,0,0,0,0,0,0,0,0,0,0,0,0,0,0,0,0,0,0,0,0,0,0,0,0,0,0,0,0,0,0,0,0,-1.135,-1.135,0,-1.1423,-1.1424,-1.1425,-1.1363,-1.136,-1.1357,-1.1355,-1.1434,-1.1438,-1.1443,0,0,0,0,0,0,0,0,0,0,0,0,0,-1.1158,-1.1162,-1.1349,-1.135,-1.1351,-1.1423,-1.1424,-1.1425,-1.1363,-1.136,-1.1357,-1.1354,-1.1432,-1.1438,-1.1443,0,0,0,0,0,0,0,0,0,0,0,0,0,-1.1238,-1.1163,-1.1349,-1.1329,-1.1328,-1.1423,-1.1424,-1.1425,-1.1364,-1.136,-1.1356,-1.1352,-1.143,-1.1437,-1.1444,-1.1563,0,0,-1.1464,-1.1467,0,0,0,0,0,0,0,0,-1.1233,-1.1245,-1.1331,-1.1331,-1.1329,-1.138,-1.1385,-1.1472,-1.1365,-1.135,-1.1355,-1.135,-1.1419,-1.1427,-1.1449,-1.1567,-1.157,-1.1465,-1.1469,-1.1472,-1.1474,0,0,0,0,0,0,0,-1.1228,-1.1241,-1.1379,-1.1332,-1.1331,-1.1317,-1.1324,-1.1401,-1.1406,-1.1351,-1.1347,-1.1356,-1.1418,-1.1443,-1.145,-1.1572,-1.1465,-1.1471,-1.1475,-1.1478,-1.1792,-1.1796,0,0,0,0,0,0,-1.1224,-1.1237,-1.1376,-1.1381,-1.1271,-1.1324,-1.1331,-1.1368,-1.1405,-1.1407,-1.1359,-1.1353,-1.1433,-1.1443,-1.1453,-1.1596,-1.1472,-1.1478,-1.1482,-1.1787,-1.1793,-1.1797,0,0,0,0,0,0,-1.122,-1.1237,-1.1373,-1.1308,-1.1324,-1.1331,-1.1372,-1.1371,-1.1396,-1.1411,-1.1412,-1.1384,-1.143,-1.1443,-1.1536,-1.1598,-1.1481,-1.1487,-1.1782,-1.1789,-1.1795,-1.1884,0,0,0,0,0,0,-1.1215,-1.1236,-1.1281,-1.1309,-1.1328,-1.1455,-1.1376,-1.1375,-1.1407,-1.1399,-1.1434,-1.1436,-1.1428,-1.1526,-1.1543,-1.1605,-1.1493,-1.1777,-1.1785,-1.1793,-1.1875,-1.1892,-1.1907,0,0,0,0,0,-1.1208,-1.1304,-1.1284,-1.1301,-1.1384,-1.1459,-1.1469,-1.1458,-1.1412,-1.1458,-1.1468,-1.1435,-1.1588,-1.1536,-1.1554,-1.162,-1.1773,-1.1783,-1.1792,-1.1868,-1.1889,-1.1907,0,0,0,0,0,0,-1.1284,-1.1307,-1.1285,-1.1392,-1.1424,-1.1448,-1.1506,-1.148,-1.1526,-1.1517,-1.1501,-1.151,-1.1608,-1.1622,-1.1565,-1.1738,-1.1673,-1.1687,-1.1725,-1.1745,-1.176,-1.1756,-1.1498,0,0,0,0,0,-1.1313,-1.1371,-1.1388,-1.1481,-1.1498,-1.1499,-1.1531,-1.1519,-1.1552,-1.1565,-1.1581,-1.1615,-1.1671,-1.1708,-1.176,-1.1876,-1.1883,-1.193,-1.1946,-1.1958,-1.1971,-1.2035,-1.2056,-1.1829,-1.1829,-1.1829,0,0,-1.1374,-1.1394,-1.1432,-1.1497,-1.152,-1.1581,-1.1511,-1.1579,-1.1624,-1.1576,-1.1665,-1.1678,-1.1714,-1.1819,-1.1866,-1.1835,-1.2035,-1.1971,-1.1981,-1.1987,-1.2047,-1.2068,-1.2087,-1.1835,-1.1834,-1.1833,0,0,-1.1517,-1.1537,-1.1617,-1.1641,-1.1676,-1.1676,-1.1696,-1.1723,-1.173,-1.1818,-1.1783,-1.1837,-1.1933,-1.1961,-1.1988,-1.2139,-1.2111,-1.2157,-1.224,-1.2302,-1.232,-1.2336,-1.2392,-1.2412,-1.2169,-1.2169,-1.2169,0,-1.1589,-1.1679,-1.1662,-1.1732,-1.1763,-1.1719,-1.1801,-1.1825,-1.1876,-1.1899,-1.1862,-1.1981,-1.2003,-1.2114,-1.2151,-1.2173,-1.2196,-1.2154,-1.2319,-1.2334,-1.2349,-1.2402,-1.2423,-1.2175,-1.2174,-1.2173,-1.2173,0,-1.1767,-1.183,-1.189,-1.1939,-1.1976,-1.2052,-1.2047,-1.2086,-1.207,-1.2074,-1.2165,-1.2188,-1.2245,-1.227,-1.2255,-1.2379,-1.2359,-1.232,-1.2256,-1.2376,-1.2426,-1.2446,-1.2182,-1.218,-1.2179,-1.2177,0,0,-1.1963,-1.2,-1.2023,-1.2044,-1.2079,-1.2128,-1.2201,-1.2255,-1.229,-1.2326,-1.2388,-1.2469,-1.2434,-1.2464,-1.2452,-1.2506,-1.2627,-1.2461,-1.2462,-1.2493,-1.2766,-1.2796,-1.282,-1.2607,-1.2611,-1.2614,-1.2764,0,-1.2109,-1.2236,-1.2222,-1.2344,-1.2402,-1.2361,-1.2425,-1.2454,-1.2459,-1.251,-1.2516,-1.2575,-1.2523,-1.2541,-1.2592,-1.2601,-1.2682,-1.259,-1.2667,-1.2669,-1.2661,-1.2846,-1.2878,-1.3019,-1.2783,-1.2786,-1.2788,0,-1.2297,-1.2338,-1.2466,-1.2491,-1.2515,-1.2573,-1.2622,-1.267,-1.2702,-1.2702,-1.2735,-1.2713,-1.2788,-1.2719,-1.2823,-1.2761,-1.2791,-1.28,-1.2805,-1.2814,-1.2738,-1.2862,-1.3063,-1.3085,-1.2818,-1.2816,-1.2814,0,-1.2429,-1.2517,-1.2605,-1.2624,-1.2656,-1.2698,-1.2713,-1.274,-1.2774,-1.2815,-1.2837,-1.2887,-1.2916,-1.2955,-1.2948,-1.2899,-1.3054,-1.2985,-1.3058,-1.3058,-1.3095,-1.3093,-1.3306,-1.311,-1.311,-1.3109,-1.3109,0,-1.2595,-1.2675,-1.2664,-1.2719,-1.2808,-1.279,-1.2879,-1.2889,-1.2913,-1.297,-1.2936,-1.299,-1.2976,-1.3029,-1.3023,-1.3111,-1.3123,-1.3126,-1.3124,-1.3131,-1.3131,-1.3152,-1.3143,-1.3115,-1.3114,-1.3113,-1.3112,0,-1.2759,-1.2755,-1.2848,-1.287,-1.2877,-1.2942,-1.296,-1.3012,-1.3013,-1.3085,-1.3101,-1.3104,-1.3164,-1.316,-1.3229,-1.3225,-1.3333,-1.3319,-1.3323,-1.3321,-1.3394,-1.3388,-1.3631,-1.3662,-1.3444,-1.3446,-1.3448,0,-1.2867,-1.2928,-1.2955,-1.299,-1.3008,-1.3064,-1.3097,-1.3082,-1.3118,-1.3158,-1.3205,-1.3262,-1.3308,-1.3407,-1.3416,-1.3468,-1.3456,-1.3537,-1.3464,-1.3468,-1.346,-1.3457,-1.3464,-1.3553,-1.3555,-1.3557,-1.3559,0,-1.3059,-1.3053,-1.3102,-1.315,-1.3191,-1.3228,-1.3262,-1.3292,-1.328,-1.3323,-1.3384,-1.3419,-1.3488,-1.3546,-1.3596,-1.3612,-1.3585,-1.3581,-1.3601,-1.361,-1.361,-1.3613,-1.3365,-1.3576,-1.3575,-1.3573,-1.3572,-1.3572,-1.32,-1.3252,-1.3279,-1.3335,-1.3358,-1.339,-1.344,-1.3447,-1.3497,-1.3552,-1.3539,-1.3609,-1.3638,-1.3702,-1.3723,-1.3777,-1.3748,-1.3777,-1.3784,-1.3792,-1.3801,-1.3599,-1.3786,-1.3785,-1.3785,-1.3784,-1.3784,0,-1.3392,-1.3407,-1.3457,-1.3505,-1.3549,-1.3517,-1.3552,-1.3591,-1.3652,-1.3682,-1.3726,-1.3797,-1.3852,-1.3865,-1.3918,-1.3959,-1.3948,-1.3974,-1.3972,-1.3977,-1.3823,-1.3802,-1.3982,-1.3982,-1.3982,-1.3982,-1.3982,-1.3982,-1.3497,-1.3583,-1.3581,-1.3679,-1.3693,-1.376,-1.3784,-1.3813,-1.3837,-1.3917,-1.3962,-1.3969,-1.3992,-1.4046,-1.4096,-1.4098,-1.412,-1.4152,-1.415,-1.4007,-1.3987,-1.3969,-1.3948,-1.4157,-1.4157,-1.4299,-1.43,-1.4301]},{"header":{"parameterUnit":"m.s-1","parameterCategory":1,"la1":30.2991,"la2":30.254,"lo1":-89.0895,"lo2":-89.0444,"dy":0.0017,"dx":0.0017,"nx":28,"ny":28,"refTime":"2025-01-07T09:00:00:Z","depth":0,"parameterNumber":3,"parameterNumberName":"V-component_of_WINDS"},"data":[0,0,0,0,0,0,0,0,0,0,0,0,0,0,0,0,0,0,0,0,0,0,0,0,0,0,0,0,0,0,0,0,0,0,0,0,0,0,0,0,0,0,0,0,0,0,0,0,0,0,0,0,0,0,0,0,0,0,-5.8505,-5.8506,0,-5.8628,-5.863,-5.8631,-5.8543,-5.8539,-5.8535,-5.8531,-5.8654,-5.866,-5.8667,0,0,0,0,0,0,0,0,0,0,0,0,0,-5.8188,-5.8195,-5.8505,-5.8506,-5.8508,-5.8628,-5.863,-5.8631,-5.8544,-5.8539,-5.8534,-5.853,-5.8651,-5.866,-5.8668,0,0,0,0,0,0,0,0,0,0,0,0,0,-5.832,-5.8197,-5.8505,-5.8479,-5.8478,-5.8628,-5.863,-5.8632,-5.8545,-5.8539,-5.8533,-5.8527,-5.8649,-5.8659,-5.8669,-5.885,0,0,-5.87,-5.8705,0,0,0,0,0,0,0,0,-5.8313,-5.8332,-5.8481,-5.8481,-5.848,-5.8564,-5.8563,-5.8705,-5.8546,-5.8519,-5.8531,-5.8525,-5.8628,-5.864,-5.8676,-5.8856,-5.8861,-5.8701,-5.8708,-5.8712,-5.8715,0,0,0,0,0,0,0,-5.8304,-5.8326,-5.8553,-5.8483,-5.8483,-5.8459,-5.8472,-5.8589,-5.8605,-5.8521,-5.8515,-5.8531,-5.8627,-5.8666,-5.8678,-5.8863,-5.8701,-5.871,-5.8717,-5.8721,-5.9195,-5.9201,0,0,0,0,0,0,-5.8298,-5.8319,-5.855,-5.8557,-5.838,-5.847,-5.8483,-5.8543,-5.8603,-5.8607,-5.8536,-5.8526,-5.8651,-5.8666,-5.8682,-5.8897,-5.8712,-5.8722,-5.8728,-5.9189,-5.9196,-5.9203,0,0,0,0,0,0,-5.8291,-5.8319,-5.8545,-5.8437,-5.8464,-5.8482,-5.8549,-5.8549,-5.8588,-5.8615,-5.8617,-5.8574,-5.8647,-5.8667,-5.8809,-5.89,-5.8726,-5.8736,-5.9181,-5.9191,-5.92,-5.9329,0,0,0,0,0,0,-5.8282,-5.8317,-5.8388,-5.8439,-5.847,-5.8671,-5.8555,-5.8555,-5.8606,-5.8595,-5.865,-5.8654,-5.8644,-5.8794,-5.8819,-5.8911,-5.8744,-5.9173,-5.9185,-5.9197,-5.9317,-5.9342,-5.9363,0,0,0,0,0,-5.8271,-5.8418,-5.8392,-5.842,-5.8558,-5.8677,-5.8694,-5.8681,-5.8614,-5.8684,-5.8701,-5.8652,-5.8886,-5.8809,-5.8837,-5.8933,-5.9167,-5.9182,-5.9196,-5.9306,-5.9337,-5.9363,0,0,0,0,0,0,-5.8376,-5.8425,-5.8395,-5.8564,-5.8617,-5.8662,-5.875,-5.8714,-5.8787,-5.8773,-5.8752,-5.8766,-5.8914,-5.8937,-5.8851,-5.911,-5.9015,-5.9036,-5.909,-5.9119,-5.9142,-5.9133,-5.8752,0,0,0,0,0,-5.8419,-5.8513,-5.8549,-5.8694,-5.8723,-5.8732,-5.8783,-5.8769,-5.8822,-5.8844,-5.8871,-5.8924,-5.9009,-5.9065,-5.9145,-5.9319,-5.9329,-5.9399,-5.9422,-5.9441,-5.9459,-5.9552,-5.9583,-5.925,-5.925,-5.925,0,0,-5.8508,-5.8546,-5.8607,-5.8716,-5.8756,-5.8852,-5.8751,-5.8857,-5.8928,-5.8859,-5.8995,-5.9017,-5.9074,-5.9232,-5.9303,-5.9256,-5.9553,-5.946,-5.9475,-5.9483,-5.957,-5.9601,-5.9629,-5.926,-5.9258,-5.9257,0,0,-5.872,-5.8759,-5.8883,-5.8925,-5.8986,-5.8991,-5.9021,-5.9072,-5.9084,-5.9219,-5.917,-5.9252,-5.9399,-5.9442,-5.9483,-5.9709,-5.9667,-5.9736,-5.9858,-5.9948,-5.9974,-5.9997,-6.0077,-6.0106,-5.9754,-5.9754,-5.9754,0,-5.8823,-5.8967,-5.8951,-5.9062,-5.911,-5.9054,-5.9178,-5.9219,-5.9303,-5.9337,-5.9284,-5.9467,-5.9502,-5.9668,-5.9724,-5.9759,-5.9791,-5.9729,-5.9972,-5.9995,-6.0016,-6.0092,-6.0122,-5.9762,-5.9761,-5.976,-5.9759,0,-5.909,-5.9191,-5.9283,-5.9367,-5.9426,-5.9543,-5.9543,-5.9605,-5.9585,-5.9595,-5.9733,-5.9772,-5.9858,-5.9897,-5.9878,-6.0061,-6.003,-5.9975,-5.9879,-6.0056,-6.0127,-6.0156,-5.9773,-5.977,-5.9768,-5.9766,0,0,-5.9372,-5.9445,-5.9479,-5.9516,-5.9579,-5.9656,-5.9769,-5.9854,-5.9907,-5.9966,-6.006,-6.0185,-6.0134,-6.0181,-6.0166,-6.0245,-6.0421,-6.018,-6.0181,-6.0223,-6.0623,-6.0664,-6.0698,-6.0393,-6.0398,-6.0403,-6.0618,0,-5.9586,-5.9786,-5.9774,-5.9961,-6.0052,-5.9999,-6.0097,-6.0146,-6.0158,-6.0236,-6.0248,-6.0337,-6.0264,-6.0292,-6.0368,-6.0384,-6.0501,-6.0368,-6.0478,-6.0482,-6.0466,-6.0735,-6.0779,-6.0981,-6.0646,-6.0651,-6.0654,0,-5.9864,-5.9933,-6.013,-6.0178,-6.0216,-6.0305,-6.0381,-6.0457,-6.051,-6.0513,-6.0565,-6.0536,-6.0649,-6.055,-6.0704,-6.0613,-6.0657,-6.0672,-6.0679,-6.0689,-6.0579,-6.0752,-6.1045,-6.1075,-6.0698,-6.0694,-6.0691,0,-6.0049,-6.0192,-6.0327,-6.036,-6.042,-6.0483,-6.0511,-6.0558,-6.061,-6.0676,-6.0709,-6.0787,-6.083,-6.0891,-6.0883,-6.0812,-6.1039,-6.094,-6.1043,-6.1044,-6.1093,-6.109,-6.1397,-6.1123,-6.1122,-6.1122,-6.1121,0,-6.0289,-6.0411,-6.0411,-6.0494,-6.0628,-6.0613,-6.0745,-6.0766,-6.0808,-6.0893,-6.0851,-6.0931,-6.0917,-6.0996,-6.0991,-6.1118,-6.1138,-6.1142,-6.1139,-6.1146,-6.1145,-6.1174,-6.116,-6.113,-6.1128,-6.1127,-6.1125,0,-6.0519,-6.0524,-6.0668,-6.0713,-6.0727,-6.0824,-6.0861,-6.0939,-6.0947,-6.1054,-6.1079,-6.1091,-6.1182,-6.1181,-6.1285,-6.1281,-6.1437,-6.1418,-6.142,-6.1416,-6.1519,-6.1509,-6.1855,-6.1899,-6.1597,-6.16,-6.1602,0,-6.0672,-6.0765,-6.082,-6.0874,-6.0906,-6.0994,-6.1047,-6.1034,-6.1091,-6.1157,-6.1227,-6.1314,-6.1384,-6.1532,-6.1549,-6.1628,-6.161,-6.1726,-6.1621,-6.1625,-6.1611,-6.1605,-6.1614,-6.1746,-6.175,-6.1752,-6.1755,0,-6.0943,-6.0941,-6.1019,-6.1099,-6.1163,-6.1225,-6.1281,-6.1328,-6.1321,-6.1386,-6.148,-6.1534,-6.164,-6.1727,-6.1802,-6.1828,-6.1791,-6.1787,-6.1815,-6.1823,-6.182,-6.1822,-6.1475,-6.1779,-6.1777,-6.1775,-6.1774,-6.1773,-6.1139,-6.1218,-6.1269,-6.1357,-6.1399,-6.1452,-6.1528,-6.1545,-6.1623,-6.171,-6.1697,-6.1801,-6.1849,-6.1947,-6.198,-6.206,-6.2019,-6.206,-6.207,-6.208,-6.2091,-6.1808,-6.2074,-6.2073,-6.2072,-6.2072,-6.2071,0,-6.1407,-6.1437,-6.1519,-6.1599,-6.1669,-6.1628,-6.1688,-6.1748,-6.1841,-6.189,-6.1959,-6.2066,-6.2149,-6.2173,-6.2253,-6.2313,-6.2297,-6.2334,-6.2329,-6.2336,-6.2124,-6.2091,-6.2345,-6.2345,-6.2345,-6.2345,-6.2345,-6.2345,-6.1555,-6.1687,-6.169,-6.1841,-6.187,-6.1973,-6.201,-6.2059,-6.2098,-6.2219,-6.2289,-6.2304,-6.2343,-6.2425,-6.25,-6.2504,-6.2535,-6.2579,-6.2577,-6.2378,-6.2351,-6.2325,-6.2294,-6.2587,-6.2587,-6.2782,-6.2784,-6.2785]}]]